RH
74 76 77 78 80 82 84 84 85 87 89 92 95 98 99 99 98 99 99 100 100 100 100 100 100 99 98 98 97 97 96 94 93 92 93 94 95 96 96 97 97 97 97 98 97 97 97 96 96 96 95 95 94 93 92 91 89 88 87 86 86 85 84
71 72 73 74 74 75 77 79 82 85 88 90 93 96 97 98 99 99 99 99 100 100 100 100 101 101 100 100 99 98 98 97 97 96 95 95 94 95 96 97 97 97 97 98 98 98 97 96 96 96 95 95 95 95 95 94 93 92 91 90 89 88 87
71 72 72 72 72 71 72 73 74 78 82 85 87 90 92 93 94 96 96 97 97 97 98 99 99 99 99 100 100 100 100 100 99 99 98 98 98 98 99 99 99 98 97 97 97 97 98 97 97 96 96 95 94 94 94 94 95 94 93 92 90 90 89
70 71 71 71 71 71 72 73 73 74 75 77 79 82 84 86 86 88 89 91 92 93 94 95 96 97 98 98 99 99 100 100 100 100 100 100 100 100 100 100 100 99 98 97 96 97 98 98 97 96 95 95 94 94 93 93 93 93 92 91 90 89 88
64 65 67 69 70 71 73 74 75 75 75 75 75 76 77 78 78 79 80 80 82 84 85 87 89 91 92 94 95 96 97 98 99 99 100 100 100 100 100 100 99 99 98 97 96 97 97 98 98 97 96 96 95 94 94 93 93 92 91 90 88 87 86
61 61 61 62 64 65 67 67 69 72 73 75 76 75 76 75 74 74 75 75 76 77 78 80 80 82 83 85 87 89 90 92 93 95 96 97 98 99 100 100 100 99 98 97 96 96 96 96 97 97 96 95 94 93 93 93 93 93 93 91 90 88 86
60 59 57 57 56 57 58 59 61 63 65 69 71 73 73 72 71 70 70 72 74 75 77 77 77 78 78 79 80 80 82 83 85 87 89 90 92 94 95 95 96 97 97 96 96 95 95 95 95 96 95 95 93 91 91 91 91 91 92 92 91 90 89
64 62 60 59 57 55 54 54 55 56 57 59 61 64 65 65 67 68 69 71 73 73 74 74 74 74 74 75 75 76 77 78 79 80 81 82 83 84 85 86 87 87 87 87 87 88 89 89 90 91 90 91 90 89 88 88 87 87 89 89 90 90 91
68 67 65 63 60 57 55 54 53 54 55 55 56 57 57 58 60 63 65 67 69 69 70 69 70 70 71 72 72 72 73 73 74 74 74 74 73 73 73 74 75 76 77 77 77 78 78 79 80 81 81 81 82 83 83 83 83 82 83 85 85 86 88
73 72 70 67 64 62 59 57 56 54 54 54 53 53 52 51 52 53 54 56 57 58 59 59 60 61 63 65 66 67 67 67 68 67 67 66 65 65 65 64 64 66 67 69 71 72 73 73 74 75 75 75 76 76 76 77 77 76 76 77 77 80 82
77 76 74 72 71 69 65 63 60 58 57 55 53 50 48 48 48 49 49 49 49 49 50 50 51 51 52 54 55 56 57 58 59 59 59 59 59 59 59 59 59 59 59 60 62 65 68 70 71 72 74 74 75 75 75 74 74 73 72 73 73 74 75
76 74 73 72 73 73 72 70 66 63 61 58 56 54 51 50 51 51 51 50 49 49 49 49 49 49 49 49 50 50 51 51 52 52 52 52 52 52 53 54 55 55 55 56 56 56 58 61 63 66 68 70 70 70 71 71 71 71 70 71 71 70 70
75 74 74 73 72 72 74 74 72 70 67 64 63 61 58 55 55 55 55 54 53 52 52 52 52 52 52 51 51 50 50 50 50 50 49 49 49 49 49 50 50 51 52 53 54 54 55 56 58 59 61 63 65 65 64 64 64 65 65 65 65 65 64
77 76 74 73 71 71 72 72 73 73 71 70 71 69 65 62 60 58 57 56 56 56 55 55 55 54 54 53 53 52 52 51 51 50 49 49 49 49 48 49 49 49 50 51 53 55 55 56 57 57 58 60 61 62 63 63 62 61 62 61 60 60 60
76 74 71 69 68 68 68 69 70 70 69 71 75 74 70 68 65 62 60 59 57 57 57 57 56 55 55 54 54 54 54 54 53 51 50 50 50 49 49 49 49 50 50 51 53 54 55 57 58 59 61 64 64 65 65 66 66 65 64 62 59 58 58
73 72 70 67 66 65 66 65 66 66 64 67 73 73 69 68 67 65 64 62 60 59 58 57 56 55 54 54 55 55 55 55 54 52 52 51 51 51 50 50 50 51 52 53 54 55 57 60 62 64 66 69 69 68 68 69 69 68 68 66 61 58 58
70 68 67 65 63 62 62 61 61 62 60 62 67 68 65 63 62 62 62 61 60 60 59 58 58 56 55 55 54 54 55 54 53 52 51 50 50 50 50 50 50 50 52 53 53 54 56 58 60 62 64 66 67 67 67 66 66 67 68 67 64 61 59
67 65 63 62 61 59 59 58 58 59 58 59 61 63 62 60 58 57 57 56 56 57 56 56 56 55 55 54 54 53 53 53 53 53 52 52 52 52 52 51 50 49 50 50 50 52 53 54 56 57 59 61 63 63 63 61 60 62 64 64 64 63 61
65 63 62 61 60 59 58 58 57 57 57 56 56 57 60 59 56 53 52 51 51 51 51 51 51 50 51 51 50 50 51 50 52 55 57 57 57 56 55 53 50 49 49 49 48 50 51 52 53 55 55 57 58 59 59 58 57 58 59 59 59 61 61
64 63 62 60 59 58 57 56 55 54 53 52 50 51 53 52 49 47 47 45 45 45 44 44 44 44 45 45 45 46 46 45 49 56 58 56 54 51 50 50 48 46 47 47 47 48 48 49 50 52 53 54 55 55 55 55 55 55 56 56 55 55 57
59 59 58 56 55 54 52 51 50 49 49 48 47 47 46 44 43 42 42 40 40 40 39 39 39 39 39 39 39 40 40 42 49 53 50 47 47 46 45 44 43 42 44 43 43 44 44 45 47 49 51 53 54 54 54 54 53 54 53 53 52 51 51
51 51 50 50 49 48 48 47 47 47 47 47 47 47 46 45 43 43 42 40 40 40 39 38 38 38 38 38 38 38 40 43 47 46 41 40 41 41 40 40 39 40 40 40 39 39 38 39 40 42 44 47 49 51 53 54 54 53 52 51 50 49 48
48 48 47 47 46 46 45 45 45 44 44 44 44 43 43 42 41 41 41 40 39 38 38 38 37 37 37 37 37 38 40 40 39 36 35 36 36 35 35 36 35 35 36 36 36 36 35 35 35 35 35 37 39 42 45 49 50 51 51 49 47 46 45
45 43 42 41 40 39 38 38 37 37 37 37 37 36 36 35 35 35 34 34 34 34 34 34 34 34 34 35 35 35 35 34 33 32 32 32 31 31 32 31 31 30 31 31 31 31 31 31 32 32 32 32 33 34 36 39 42 44 46 46 45 43 42
39 37 37 36 35 34 34 34 34 34 33 33 33 33 32 32 31 31 30 30 30 30 30 31 31 32 32 32 32 32 31 31 31 31 30 29 30 30 29 28 28 28 28 27 27 28 28 28 29 30 31 30 31 31 32 33 36 38 39 41 42 41 40
38 37 37 36 36 35 35 34 34 33 33 33 33 32 32 31 31 30 30 30 30 30 30 31 32 32 32 33 33 33 33 32 32 32 31 30 30 29 29 28 27 27 26 26 26 26 26 27 28 30 31 32 33 34 35 37 39 38 38 40 41 40 38
38 37 36 35 35 34 33 32 31 30 30 30 29 29 29 29 29 29 28 28 28 28 29 30 31 32 32 33 34 34 35 35 35 34 33 31 31 30 29 28 27 27 27 28 28 28 28 29 31 34 37 39 40 41 43 44 45 44 43 44 45 42 38
34 34 34 33 33 32 31 30 30 29 29 29 29 29 28 28 28 28 28 30 29 28 29 29 30 30 30 31 32 32 33 33 33 32 31 30 29 28 28 27 27 28 29 31 31 33 34 35 37 40 42 44 45 45 46 47 47 47 47 46 46 44 41
34 34 34 34 34 33 33 32 31 31 31 31 31 31 31 31 32 33 36 38 36 33 32 32 32 31 32 32 32 32 32 32 31 31 31 30 29 29 29 29 29 30 32 34 36 37 38 40 41 42 44 45 46 46 48 48 48 47 47 46 46 44 42
35 35 35 35 34 35 34 34 33 33 34 34 34 35 36 37 38 40 42 43 39 36 35 36 35 35 35 35 35 34 34 34 33 32 32 32 32 33 33 33 34 35 37 38 39 40 41 42 42 44 45 46 47 49 50 50 50 49 48 47 46 45 43
36 36 36 36 36 36 36 36 36 36 36 37 37 38 39 40 40 41 43 43 40 37 37 38 37 38 38 38 38 37 37 37 36 36 36 36 36 37 38 39 39 40 41 42 43 43 43 44 45 46 47 49 50 51 52 52 52 52 50 50 48 47 45
39 39 40 39 39 39 39 39 40 40 40 40 40 40 41 41 42 43 44 43 41 40 41 41 41 41 41 41 41 41 40 40 40 40 40 40 40 41 42 43 42 43 43 44 45 45 46 47 48 49 50 51 52 53 53 54 54 53 53 52 50 49 47
44 44 45 44 45 45 45 45 45 44 44 44 44 44 44 44 45 45 44 44 44 44 45 45 45 44 44 44 44 44 43 43 44 44 44 44 44 44 44 44 45 44 44 44 45 46 47 48 50 51 52 53 54 55 56 56 56 55 55 54 53 51 50
49 49 49 49 49 49 49 50 50 49 49 49 49 49 49 48 48 48 47 47 48 48 47 48 47 47 47 47 47 47 47 46 47 47 47 47 46 46 46 46 46 46 45 45 45 45 46 47 49 51 52 53 54 56 56 56 57 57 56 56 55 54 54
54 55 55 55 55 55 55 55 56 56 56 56 56 57 56 55 54 54 53 54 53 53 52 52 51 50 50 50 49 49 49 50 50 50 50 50 49 48 47 47 47 47 47 46 46 46 46 46 47 49 51 52 53 55 56 56 57 57 57 58 59 60 61
60 61 61 61 60 60 60 60 60 60 60 61 61 61 61 60 60 60 60 59 59 59 58 57 56 55 55 54 54 54 54 54 54 54 54 54 53 52 51 51 50 50 49 49 49 48 48 47 48 49 51 52 53 54 56 57 58 59 61 63 65 68 70